Hourly Data Report for July 17, 2021

NORTH CAPE
PRINCE EDWARD ISLAND
Current Station Operator: ECCC - MSC

47°03'29.000" N
63°59'55.000" W
7.60 m
8300516
71987
WNE

Download Data

Hourly Data (July 2021)
Hourly Data Report for July 17, 2021
TIME
LST
Temp Definition
°C
Dew Point Definition
°C
Rel Hum Definition
%
Precip. Amount Definition
mm

Wind Dir Definition
10's deg

Wind Spd Definition
km/h
Visibility Definition
km
Stn Press Definition
kPa
Hmdx Definition


Wind Chill Definition


Weather Definition


00:00 19.2 16.8 86 0.0 27 22   101.30     LegendNANA
01:00 18.7 16.8 89 0.0 27 18   101.35     LegendNANA
02:00 18.3 16.9 91 0.0 27 15   101.38     LegendNANA
03:00 18.3 16.9 91 0.0 25 14   101.42     LegendNANA
04:00 18.1 16.6 91 0.0 23 14   101.46     LegendNANA
05:00 18.1 16.5 90 0.0 24 16   101.50     LegendNANA
06:00 18.3 16.3 88 0.0 23 17   101.55     LegendNANA
07:00 18.3 16.6 90 0.0 24 19   101.59     LegendNANA
08:00 18.8 16.8 88 0.0 23 18   101.61     LegendNANA
09:00 19.4 16.5 83 0.2 23 21   101.59     LegendNANA
10:00 19.5 16.5 83 0.0 23 19   101.59     LegendNANA
11:00 19.5 16.6 83 0.0 23 16   101.58     LegendNANA
12:00 20.7 16.5 77 0.0 24 18   101.55 26   LegendNANA
13:00 21.8 17.1 75 0.0 24 14   101.51 27   LegendNANA
14:00 23.4 16.3 64 0.0 23 19   101.48 28   LegendNANA
15:00 23.7 16.1 63 0.0 23 19   101.45 28   LegendNANA
16:00 23.6 17.1 67 0.0 23 17   101.44 29   LegendNANA
17:00 23.6 16.4 64 0.0 22 15   101.41 28   LegendNANA
18:00 24.6 15.7 58 0.0 21 16   101.40 29   LegendNANA
19:00 23.2 16.2 64 0.0 19 10   101.41 28   LegendNANA
20:00 23.7 15.6 60 0.0 21 18   101.42 28   LegendNANA
21:00 22.3 16.5 70 0.0 22 19   101.47 27   LegendNANA
22:00 21.2 17.5 79 0.0 23 19   101.49 27   LegendNANA
23:00 20.8 17.4 81 0.0 24 20   101.53 26   LegendNANA

Notes on Data Quality.

Legend

  • E = Estimated
  • M = Missing
  • NA = Not Available*
  • [empty] = Indicates an unobserved value
Date modified: